DMSAT-1 (47940 NORAD) Tracking and Keplerian Element Data

This shows tracking and keplerian element data for the satellite.

Feedback or suggestion? Click here.




ElementValue
Catalog47940
NameDMSAT-1
Epoch Orbit1373
Epoch Day172.85124713
Epoch Year2021
RAAN75.0396
Inclination97.5569
Eccentricity0.0016856
Argument of Perigee291.7093
Mean Anonmoly131.0356
Mean Motion15.06627228
Decay Rate2.4E-06
L11 47940U 21022J 21172.85124713 .00000240 00000-0 20343-4 0 9997
L22 47940 97.5569 75.0396 0016856 291.7093 131.0356 15.06627228 13736

Live tracking and technical data element details for DMSAT-1 (NORAD 47940). DMSAT-1 can be tracked NOW for your location showing map with azimuth and elevation plus other details from your city location.

Track the satellite on the map from your city or location and see movement details for azimuth, elevation, latitude, longitude, range, height, and movement on the map or in text.







IsCatalogInMostPopularTable: catalog: 47940, numindb: 47
Update: records affected: 1



GetName: 47940 DMSAT-1

Hit Count: updated at: Thu, 24 Jun 2021 04:00:41 GMT